Location: Unspecified
(0.0000°N, 0.0000°E)
Time: 03:11:12
(UTC+00:00)

STARLINK-2020 - Pass Details

Date: 24 February 2021
Orbit: 316 x 318 km, 53.1° (Epoch: 23 February)

Event Time Altitude Azimuth Distance (km) Brightness Sun altitude
Exits shadow 05:19:10 - 349° (N) 1,636 5.8 -13.3°
Reaches altitude 10° 05:20:18 10° 360° (N) 1,218 5.3 -13.1°
Maximum altitude 05:22:33 23° 56° (NE) 732 4.8 -12.5°
Drops below altitude 10° 05:24:49 10° 112° (ESE) 1,227 6.8 -11.9°
Sets 05:27:00 0° 128° (SE) 2,062 7.8 -11.4°
